Date,TemperatureHighF,TemperatureAvgF,TemperatureLowF,DewpointHighF,DewpointAvgF,DewpointLowF,HumidityHigh,HumidityAvg,HumidityLow,PressureMaxIn,PressureMinIn,WindSpeedMaxMPH,WindSpeedAvgMPH,GustSpeedMaxMPH,PrecipitationSumIn
2013-1-1,81,78,75,-100,-100,-100,0,0,100,30.09,30.00,17,11,20,0.00
2013-1-2,81,79,75,-100,-100,-100,0,0,100,30.07,29.97,18,11,23,0.00
2013-1-3,81,77,73,-100,-100,-100,0,0,100,30.12,30.01,20,8,26,0.00
2013-1-4,81,79,74,-100,-100,-100,0,0,100,30.17,30.07,21,12,26,0.00
2013-1-5,81,80,79,-100,-100,-100,0,0,100,30.20,30.09,23,17,28,0.00
2013-1-6,81,80,78,-100,-100,-100,0,0,100,30.14,30.05,23,18,28,0.00
2013-1-7,81,79,75,-100,-100,-100,0,0,100,30.12,30.02,25,17,32,0.00
2013-1-8,81,79,76,-100,-100,-100,0,0,100,30.16,30.05,31,18,37,0.00
2013-1-9,81,80,75,-100,-100,-100,0,0,100,30.19,30.08,28,18,36,0.00
2013-1-10,80,79,75,-100,-100,-100,0,0,100,30.17,30.08,26,17,31,0.00
2013-1-11,80,78,75,-100,-100,-100,0,0,100,30.11,29.99,18,14,24,0.00
2013-1-12,81,76,72,-100,-100,-100,0,0,100,30.02,29.94,23,11,28,0.00
2013-1-13,81,78,75,-100,-100,-100,0,0,100,30.05,29.97,16,10,20,0.00
2013-1-14,80,78,76,-100,-100,-100,0,0,100,30.08,29.99,15,9,21,0.00
2013-1-15,79,76,72,-100,-100,-100,0,0,100,30.05,29.97,19,12,25,0.00
2013-1-16,79,76,72,-100,-100,-100,0,0,100,30.07,29.97,21,12,26,0.00
2013-1-17,80,77,73,-100,-100,-100,0,0,100,30.08,29.98,21,12,28,0.00
2013-1-18,80,77,73,-100,-100,-100,0,0,100,30.11,30.01,16,9,19,0.00
2013-1-19,80,78,74,-100,-100,-100,0,0,100,30.11,30.00,20,12,24,0.00
2013-1-20,80,77,74,-100,-100,-100,0,0,100,30.09,29.98,19,9,22,0.00
2013-1-21,80,77,72,-100,-100,-100,0,0,100,30.05,29.96,16,8,21,0.00
2013-1-22,82,78,75,-100,-100,-100,0,0,100,30.09,29.98,20,8,26,0.00
2013-1-23,81,78,74,-100,-100,-100,0,0,100,30.13,30.02,21,2,25,0.00
2013-1-24,80,78,75,-100,-100,-100,0,0,100,30.12,30.00,18,10,22,0.00
2013-1-25,81,77,73,-100,-100,-100,0,0,100,30.11,30.02,21,9,27,0.00
2013-1-26,80,78,74,-100,-100,-100,0,0,100,30.11,30.03,22,12,27,0.00
2013-1-27,80,78,74,-100,-100,-100,0,0,100,30.15,30.05,17,10,22,0.00
2013-1-28,80,79,76,-100,-100,-100,0,0,100,30.19,30.08,23,13,27,0.00
2013-1-29,79,77,74,-100,-100,-100,0,0,100,30.14,30.04,19,12,28,0.00
2013-1-30,80,77,74,-100,-100,-100,0,0,100,30.11,30.03,23,13,28,0.00
2013-1-31,79,78,74,-100,-100,-100,0,0,100,30.10,30.01,21,13,25,0.00
2013-2-1,79,76,72,-100,-100,-100,0,0,100,30.10,30.00,22,10,30,0.00
2013-2-2,81,77,71,-100,-100,-100,0,0,100,30.07,29.98,15,9,19,0.00
2013-2-3,81,77,73,-100,-100,-100,0,0,100,30.04,29.92,19,9,25,0.00
2013-2-4,80,76,70,-100,-100,-100,0,0,100,30.04,29.93,15,1,22,0.00
2013-2-5,80,76,71,-100,-100,-100,0,0,100,30.07,29.97,18,8,23,0.00
2013-2-6,80,76,72,-100,-100,-100,0,0,100,30.05,29.96,21,9,25,0.00
2013-2-7,80,77,73,-100,-100,-100,0,0,100,30.02,29.92,21,4,25,0.00
2013-2-8,80,77,72,-100,-100,-100,0,0,100,30.04,29.93,22,11,27,0.00
2013-2-9,80,77,73,-100,-100,-100,0,0,100,30.05,29.96,17,11,22,0.00
2013-2-10,80,77,72,-100,-100,-100,0,0,100,30.10,30.00,21,9,26,0.00
2013-2-11,78,77,74,-100,-100,-100,0,0,100,30.13,30.04,24,17,32,0.00
2013-2-12,79,77,75,-100,-100,-100,0,0,100,30.12,30.05,19,14,25,0.00
2013-2-13,80,76,71,-100,-100,-100,0,0,100,30.11,30.00,16,1,22,0.00
2013-2-14,80,78,75,-100,-100,-100,0,0,100,30.11,30.01,15,10,22,0.00
2013-2-15,83,78,75,-100,-100,-100,0,0,100,30.10,29.98,18,10,26,0.00
2013-2-16,83,79,74,-100,-100,-100,0,0,100,30.05,29.95,19,10,25,0.00
2013-2-17,82,78,74,-100,-100,-100,0,0,100,30.08,29.98,23,8,27,0.00
2013-2-18,81,78,73,-100,-100,-100,0,0,100,30.13,30.03,18,8,22,0.00
2013-2-19,80,77,74,-100,-100,-100,0,0,100,30.13,30.02,21,12,30,0.00
2013-2-20,81,77,74,-100,-100,-100,0,0,100,30.08,29.95,21,12,29,0.00
2013-2-21,82,78,74,-100,-100,-100,0,0,100,30.06,29.94,20,8,25,0.00
2013-2-22,80,77,73,-100,-100,-100,0,0,100,30.09,29.99,16,9,21,0.00
2013-2-23,80,78,77,-100,-100,-100,0,0,100,30.07,29.99,21,11,24,0.00
2013-2-24,80,78,73,-100,-100,-100,0,0,100,30.06,29.94,17,9,21,0.00
2013-2-25,79,77,74,-100,-100,-100,0,0,100,30.02,29.91,21,11,26,0.00
2013-2-26,80,78,76,-100,-100,-100,0,0,100,30.06,29.96,22,14,30,0.00
2013-2-27,85,79,74,-100,-100,-100,0,0,100,30.06,29.94,19,10,27,0.00
2013-2-28,80,78,74,-100,-100,-100,0,0,100,30.04,29.91,22,11,26,0.00
2013-3-1,81,78,74,-100,-100,-100,0,0,100,30.00,29.87,17,9,21,0.00
2013-3-2,82,77,73,-100,-100,-100,0,0,100,29.98,29.87,19,10,22,0.00
2013-3-3,84,78,73,-100,-100,-100,0,0,100,30.01,29.89,14,-22,16,0.00
2013-3-4,85,78,74,-100,-100,-100,0,0,100,30.06,29.96,12,5,19,0.00
2013-3-5,78,76,73,-100,-100,-100,0,0,100,30.10,30.01,12,6,19,0.00
2013-3-6,79,76,72,-100,-100,-100,0,0,100,30.09,29.99,13,7,18,0.00
2013-3-7,82,78,73,-100,-100,-100,0,0,100,30.06,29.97,12,5,15,0.00
2013-3-8,82,77,74,-100,-100,-100,0,0,100,30.07,29.98,9,5,12,0.00
2013-3-9,82,75,71,-100,-100,-100,0,0,100,30.06,29.97,9,-9,15,0.00
2013-3-10,81,77,74,-100,-100,-100,0,0,100,30.04,29.95,10,4,14,0.00
2013-3-11,79,77,74,-100,-100,-100,0,0,100,30.04,29.95,14,7,18,0.00
2013-3-12,78,77,74,-100,-100,-100,0,0,100,30.09,29.97,17,11,22,0.00
2013-3-13,79,77,75,-100,-100,-100,0,0,100,30.06,29.95,18,12,24,0.00
2013-3-14,79,77,75,-100,-100,-100,0,0,100,30.04,29.90,18,10,22,0.00
2013-3-15,82,76,70,-100,-100,-100,0,0,100,30.03,29.92,9,5,14,0.00
2013-3-16,80,77,73,-100,-100,-100,0,0,100,30.05,29.95,12,7,18,0.00
2013-3-17,79,78,75,-100,-100,-100,0,0,100,30.09,29.98,19,12,28,0.00
2013-3-18,80,77,73,-100,-100,-100,0,0,100,30.09,29.99,22,14,27,0.00
2013-3-19,80,77,74,-100,-100,-100,0,0,100,30.04,29.90,20,12,29,0.00
2013-3-20,84,78,74,-100,-100,-100,0,0,100,29.98,29.84,21,10,26,0.00
2013-3-21,87,81,77,-100,-100,-100,0,0,100,29.96,29.82,18,9,22,0.00
2013-3-22,84,79,76,-100,-100,-100,0,0,100,30.04,29.91,22,8,25,0.00
2013-3-23,81,79,76,-100,-100,-100,0,0,100,30.06,29.93,20,3,24,0.00
2013-3-24,80,79,76,-100,-100,-100,0,0,100,30.01,29.86,24,12,29,0.00
2013-3-25,83,79,76,-100,-100,-100,0,0,100,29.99,29.86,24,12,30,0.00
2013-3-26,86,81,76,-100,-100,-100,0,0,100,30.02,29.89,18,9,21,0.00
2013-3-27,85,80,75,-100,-100,-100,0,0,100,30.03,29.93,15,8,19,0.00
2013-3-28,83,80,76,-100,-100,-100,0,0,100,30.03,29.93,12,7,17,0.00
2013-3-29,80,76,73,-100,-100,-100,0,0,100,30.11,29.97,19,10,29,0.00
2013-3-30,79,76,74,-100,-100,-100,0,0,100,30.12,30.03,16,10,26,0.00
2013-3-31,80,77,74,-100,-100,-100,0,0,100,30.11,30.04,23,11,31,0.00
2013-4-1,81,79,77,-100,-100,-100,0,0,100,30.09,29.99,25,17,30,0.00
2013-4-2,85,80,76,-100,-100,-100,0,0,100,30.05,29.96,20,11,25,0.00
2013-4-3,83,80,76,-100,-100,-100,0,0,100,30.06,29.94,20,10,25,0.00
2013-4-4,81,79,76,-100,-100,-100,0,0,100,30.07,29.97,26,5,30,0.00
2013-4-5,80,78,76,-100,-100,-100,0,0,100,30.07,29.93,21,13,27,0.00
2013-4-6,85,80,75,-100,-100,-100,0,0,100,30.03,29.92,22,-12,28,0.00
2013-4-7,85,80,76,-100,-100,-100,0,0,100,30.04,29.93,19,9,26,0.00
2013-4-8,81,80,79,-100,-100,-100,0,0,100,30.04,29.94,22,14,27,0.00
2013-4-9,81,79,76,-100,-100,-100,0,0,100,30.05,29.93,21,15,26,0.00
2013-4-10,82,80,77,-100,-100,-100,0,0,100,30.03,29.93,19,12,29,0.00
2013-4-11,81,79,76,-100,-100,-100,0,0,100,30.03,29.93,22,15,28,0.00
2013-4-12,81,79,76,-100,-100,-100,0,0,100,30.01,29.92,21,14,29,0.00
2013-4-13,82,79,75,-100,-100,-100,0,0,100,30.00,29.90,24,13,30,0.00
2013-4-14,82,80,77,-100,-100,-100,0,0,100,30.02,29.92,26,14,32,0.00
2013-4-15,82,79,77,-100,-100,-100,0,0,100,30.04,29.96,22,13,27,0.00
2013-4-16,81,77,73,-100,-100,-100,0,0,100,30.04,29.95,21,9,27,0.00
2013-4-17,81,77,73,-100,-100,-100,0,0,100,30.01,29.91,22,-31,30,0.00
2013-4-18,81,78,74,-100,-100,-100,0,0,100,30.03,29.93,26,17,31,0.00
2013-4-19,80,79,77,-100,-100,-100,0,0,100,30.07,29.97,27,22,32,0.00
2013-4-20,81,79,77,-100,-100,-100,0,0,100,30.07,29.97,25,17,30,0.00
2013-4-21,81,79,76,-100,-100,-100,0,0,100,30.06,29.97,17,11,23,0.00
2013-4-22,81,78,73,-100,-100,-100,0,0,100,30.02,29.93,19,12,22,0.00
2013-4-23,81,78,74,-100,-100,-100,0,0,100,30.00,29.89,23,-4,28,0.00
2013-4-24,81,78,75,-100,-100,-100,0,0,100,30.01,29.92,17,7,23,0.00
2013-4-25,82,78,74,-100,-100,-100,0,0,100,30.03,29.94,13,7,17,0.00
2013-4-26,83,79,75,-100,-100,-100,0,0,100,30.02,29.95,11,6,14,0.00
2013-4-27,81,78,75,-100,-100,-100,0,0,100,30.00,29.91,18,2,22,0.00
2013-4-28,81,78,74,-100,-100,-100,0,0,100,29.98,29.90,20,2,25,0.00
2013-4-29,81,79,75,-100,-100,-100,0,0,100,29.98,29.91,18,11,21,0.00
2013-4-30,81,79,74,-100,-100,-100,0,0,100,30.00,29.93,20,12,24,0.00
2013-5-1,81,79,76,-100,-100,-100,0,0,100,29.98,29.89,24,12,29,0.00
2013-5-2,82,79,77,-100,-100,-100,0,0,100,29.94,29.84,16,9,20,0.00
2013-5-3,85,81,78,-100,-100,-100,0,0,100,29.91,29.81,10,5,14,0.00
2013-5-4,87,82,78,-100,-100,-100,0,0,100,29.87,29.75,12,-22,14,0.00
2013-5-5,86,82,79,-100,-100,-100,0,0,100,29.93,29.78,10,-3,14,0.00
2013-5-6,86,81,77,-100,-100,-100,0,0,100,30.00,29.88,13,-9,17,0.00
2013-5-7,84,80,76,-100,-100,-100,0,0,100,30.08,29.92,17,6,19,0.00
2013-5-8,83,79,76,-100,-100,-100,0,0,100,30.11,30.00,19,9,24,0.00
2013-5-9,82,78,75,-100,-100,-100,0,0,100,30.12,30.01,20,12,28,0.00
2013-5-10,83,77,72,-100,-100,-100,0,0,100,30.11,29.91,17,11,22,0.00
2013-5-11,83,78,73,-100,-100,-100,0,0,100,30.05,29.92,15,-15,16,0.00
2013-5-12,84,79,76,-100,-100,-100,0,0,100,30.00,29.92,10,5,14,0.00
2013-5-13,83,80,76,-100,-100,-100,0,0,100,30.02,29.94,14,-9,21,0.00
2013-5-14,86,81,77,-100,-100,-100,0,0,100,30.02,29.93,17,1,22,0.00
2013-5-15,82,80,78,-100,-100,-100,0,0,100,30.01,29.94,20,8,23,0.00
2013-5-16,82,76,78,-100,-100,-100,0,0,100,30.02,29.93,18,10,21,0.00
2013-5-17,84,81,78,-100,-100,-100,0,0,100,30.06,29.96,10,6,18,0.00
2013-5-18,82,80,77,-100,-100,-100,0,0,100,30.06,29.98,19,11,23,0.00
2013-5-19,83,80,77,-100,-100,-100,0,0,100,30.04,29.95,21,12,26,0.00
2013-5-20,82,80,77,-100,-100,-100,0,0,100,30.03,29.95,24,16,28,0.00
2013-5-21,83,80,76,-100,-100,-100,0,0,100,30.01,29.93,22,16,27,0.00
2013-5-22,80,78,74,-100,-100,-100,0,0,100,30.03,29.93,32,14,36,0.00
2013-5-23,82,80,76,-100,-100,-100,0,0,100,30.04,29.96,28,17,31,0.00
2013-5-24,82,80,77,-100,-100,-100,0,0,100,30.05,29.95,24,15,28,0.00
2013-5-25,84,80,76,-100,-100,-100,0,0,100,30.05,29.95,20,11,25,0.00
2013-5-26,83,81,78,-100,-100,-100,0,0,100,30.06,29.98,16,9,23,0.00
2013-5-27,83,80,74,-100,-100,-100,0,0,100,30.07,29.97,22,8,33,0.00
2013-5-28,83,80,76,-100,-100,-100,0,0,100,30.06,29.98,24,12,28,0.00
2013-5-29,83,81,79,-100,-100,-100,0,0,100,30.05,29.97,22,16,26,0.00
2013-5-30,82,80,76,-100,-100,-100,0,0,100,30.06,29.98,25,10,37,0.00
2013-5-31,83,80,76,-100,-100,-100,0,0,100,30.08,29.99,20,7,23,0.00
2013-6-1,84,81,77,-100,-100,-100,0,0,100,30.06,29.99,10,5,13,0.00
2013-6-2,84,81,78,-100,-100,-100,0,0,100,30.06,29.98,10,5,20,0.00
2013-6-3,85,81,78,-100,-100,-100,0,0,100,30.05,29.96,24,7,32,0.00
2013-6-4,87,82,79,-100,-100,-100,0,0,100,30.06,29.96,15,6,24,0.00
2013-6-5,85,82,80,-100,-100,-100,0,0,100,30.03,29.92,12,5,18,0.00
2013-6-6,84,82,79,-100,-100,-100,0,0,100,30.03,29.95,9,5,17,0.00
2013-6-7,84,81,76,-100,-100,-100,0,0,100,30.03,29.96,11,6,19,0.00
2013-6-8,84,81,77,-100,-100,-100,0,0,100,30.03,29.95,16,8,19,0.00
2013-6-9,85,82,80,-100,-100,-100,0,0,100,30.05,29.98,21,12,27,0.00
2013-6-10,83,82,79,-100,-100,-100,0,0,100,30.06,29.98,20,12,24,0.00
2013-6-11,83,81,78,-100,-100,-100,0,0,100,30.07,29.99,21,10,25,0.00
2013-6-12,83,80,75,-100,-100,-100,0,0,100,30.09,30.00,19,7,21,0.00
2013-6-13,84,82,80,-100,-100,-100,0,0,100,30.06,29.98,18,10,22,0.00
2013-6-14,87,83,78,-100,-100,-100,0,0,100,30.02,29.94,19,10,24,0.00
2013-6-15,89,83,79,-100,-100,-100,0,0,100,30.06,29.95,19,10,24,0.00
2013-6-16,84,82,79,-100,-100,-100,0,0,100,30.06,29.97,18,10,25,0.00
2013-6-17,83,82,81,-100,-100,-100,0,0,100,30.06,30.01,15,9,22,0.00
2013-6-18,84,82,80,-100,-100,-100,0,0,100,30.06,29.98,14,9,22,0.00
2013-6-19,82,78,74,-100,-100,-100,0,0,100,30.04,29.97,17,10,24,0.00